Вернуться в каталог

STARLINK-33940

АктивенСвязьVLEO
NORAD 63831·PAYLOAD·🇺🇸 United States

Запущен May 4, 2025 с Cape Canaveral Space Force Station

Loading…

Ближайшие Пролёты (ближайшие 24 часа)

TLE

СвежийSource: CelesTrak SupGP

Эпоха: Sep 15, 2026, 02:43 UTC

1 63831C 25092AD  26258.11368056 -.00029202  00000+0 -10580-2 0  2582
2 63831  43.0024 182.8344 0001207 277.3278  95.6433 15.27583466    10

Отслеживайте STARLINK-33940 в реальном времени с AllMySat

Download on the App Store